TimeCDT,TemperatureF,Dew PointF,Humidity,Sea Level PressureIn,VisibilityMPH,Wind Direction,Wind SpeedMPH,Gust SpeedMPH,PrecipitationIn,Events,Conditions,WindDirDegrees,DateUTC
12:53 AM,66.0,50.0,56,29.96,10.0,South,3.5,-,N/A,,Clear,190,2012-10-04 05:53:00
1:53 AM,64.0,51.1,63,29.98,10.0,Calm,Calm,-,N/A,,Clear,0,2012-10-04 06:53:00
2:53 AM,63.0,51.1,65,29.97,10.0,South,4.6,-,N/A,,Scattered Clouds,190,2012-10-04 07:53:00
3:53 AM,64.9,50.0,58,29.98,10.0,SW,4.6,-,N/A,,Clear,230,2012-10-04 08:53:00
4:53 AM,64.0,48.9,58,30.04,10.0,NW,10.4,19.6,N/A,,Partly Cloudy,310,2012-10-04 09:53:00
5:53 AM,59.0,43.0,55,30.10,10.0,NNW,10.4,-,N/A,,Clear,330,2012-10-04 10:53:00
6:53 AM,55.9,42.1,60,30.11,10.0,North,9.2,-,N/A,,Scattered Clouds,10,2012-10-04 11:53:00
7:53 AM,55.0,43.0,64,30.14,10.0,NW,8.1,-,N/A,,Partly Cloudy,320,2012-10-04 12:53:00
8:53 AM,57.0,43.0,59,30.18,10.0,NW,13.8,-,N/A,,Clear,320,2012-10-04 13:53:00
9:53 AM,55.0,43.0,64,30.22,10.0,NW,13.8,-,N/A,,Mostly Cloudy,320,2012-10-04 14:53:00
10:43 AM,53.6,42.8,67,30.26,10.0,NNW,15.0,21.9,N/A,,Mostly Cloudy,340,2012-10-04 15:43:00
10:53 AM,55.0,43.0,64,30.24,10.0,NNW,12.7,20.7,N/A,,Overcast,340,2012-10-04 15:53:00
11:16 AM,53.6,42.8,67,30.26,10.0,NNW,13.8,20.7,0.00,Rain,Light Rain,340,2012-10-04 16:16:00
11:41 AM,53.6,42.8,67,30.27,10.0,NNW,12.7,24.2,0.00,,Overcast,340,2012-10-04 16:41:00
11:53 AM,53.1,42.1,66,30.27,10.0,North,13.8,19.6,0.00,,Overcast,350,2012-10-04 16:53:00
12:12 PM,53.6,41.0,62,30.27,10.0,NNW,13.8,21.9,N/A,,Overcast,330,2012-10-04 17:12:00
12:28 PM,51.8,41.0,67,30.28,10.0,NNW,10.4,-,N/A,,Overcast,340,2012-10-04 17:28:00
12:53 PM,53.1,41.0,64,30.27,10.0,NNW,10.4,-,N/A,,Overcast,340,2012-10-04 17:53:00
1:04 PM,51.8,41.0,67,30.28,10.0,NNW,9.2,-,N/A,,Overcast,340,2012-10-04 18:04:00
1:11 PM,51.8,39.2,62,30.28,10.0,NNW,12.7,-,N/A,,Overcast,330,2012-10-04 18:11:00
1:53 PM,51.1,39.9,66,30.27,10.0,North,13.8,-,N/A,,Overcast,350,2012-10-04 18:53:00
2:53 PM,52.0,37.9,59,30.27,10.0,North,9.2,-,N/A,,Overcast,360,2012-10-04 19:53:00
3:53 PM,54.0,37.9,55,30.25,10.0,North,10.4,-,N/A,,Overcast,360,2012-10-04 20:53:00
4:53 PM,55.4,39.2,54,30.24,10.0,NNE,5.8,-,N/A,,Overcast,30,2012-10-04 21:53:00
5:53 PM,55.0,39.9,57,30.23,10.0,Calm,Calm,-,N/A,,Overcast,0,2012-10-04 22:53:00
6:53 PM,55.0,41.0,59,30.24,10.0,Calm,Calm,-,N/A,,Overcast,0,2012-10-04 23:53:00
7:53 PM,55.0,41.0,59,30.25,10.0,Calm,Calm,-,N/A,,Overcast,0,2012-10-05 00:53:00
8:53 PM,54.0,43.0,66,30.25,10.0,Calm,Calm,-,N/A,,Overcast,0,2012-10-05 01:53:00
9:53 PM,54.0,44.1,69,30.25,10.0,Calm,Calm,-,N/A,,Overcast,0,2012-10-05 02:53:00
10:53 PM,54.0,39.9,59,30.26,10.0,North,5.8,-,N/A,,Overcast,350,2012-10-05 03:53:00
11:53 PM,54.0,37.0,53,30.27,10.0,North,9.2,-,N/A,,Overcast,350,2012-10-05 04:53:00